When you browse on this site, cookies collect data to enhance your experience and personalize the content and advertising you see.
Visit our Privacy Policy to learn more. By continuing to use the site, you agree to this use of cookies and data.
EN

Hourly Weather Tarija

Today, 26 September, Saturday

Time Temperature Precipitation Wind Pressure Humidity
00:00 +23°C° 0 mm 1 mps 595 mmHg 35%
01:00 +22°C° 0 mm 1 mps 595 mmHg 34%
02:00 +22°C° 0 mm 1 mps 594 mmHg 33%
03:00 +22°C° 0 mm 1 mps 594 mmHg 31%
04:00 +21°C° 0 mm 1 mps 594 mmHg 29%
05:00 +21°C° 0 mm 1 mps 594 mmHg 27%
06:00 +23°C° 0 mm 1 mps 595 mmHg 24%
07:00 +25°C° 0 mm 1 mps 596 mmHg 22%
08:00 +27°C° 0 mm 2 mps 597 mmHg 19%
09:00 +29°C° 0 mm 2 mps 598 mmHg 16%
10:00 +31°C° 0 mm 2 mps 598 mmHg 13%
11:00 +34°C° 0 mm 2 mps 598 mmHg 10%
12:00 +35°C° 0 mm 3 mps 598 mmHg 9%
13:00 +35°C° 0 mm 3 mps 597 mmHg 8%
14:00 +36°C° 0 mm 3 mps 597 mmHg 6%
15:00 +35°C° 0 mm 4 mps 596 mmHg 9%
16:00 +34°C° 0 mm 4 mps 595 mmHg 12%
17:00 +33°C° 0 mm 5 mps 594 mmHg 15%
18:00 +30°C° 0.1 mm 4 mps 594 mmHg 23%
19:00 +28°C° 0.1 mm 3 mps 594 mmHg 31%
20:00 +26°C° 0.1 mm 2 mps 594 mmHg 39%
21:00 +25°C° 0.1 mm 2 mps 594 mmHg 43%
22:00 +24°C° 0.1 mm 2 mps 594 mmHg 47%
23:00 +23°C° 0.1 mm 2 mps 594 mmHg 50%

Tomorrow, 27 September, Sunday

Time Temperature Precipitation Wind Pressure Humidity
00:00 +21°C° 0 mm 2 mps 594 mmHg 54%
01:00 +20°C° 0 mm 2 mps 594 mmHg 57%
02:00 +19°C° 0 mm 2 mps 594 mmHg 61%
03:00 +18°C° 0 mm 2 mps 594 mmHg 68%
04:00 +18°C° 0 mm 1 mps 594 mmHg 74%
05:00 +18°C° 0 mm 1 mps 594 mmHg 81%
06:00 +18°C° 0 mm 1 mps 595 mmHg 80%
07:00 +18°C° 0 mm 1 mps 595 mmHg 80%
08:00 +17°C° 0 mm 2 mps 596 mmHg 79%
09:00 +18°C° 0 mm 2 mps 596 mmHg 77%
10:00 +18°C° 0 mm 2 mps 596 mmHg 74%
11:00 +18°C° 0 mm 3 mps 597 mmHg 72%
12:00 +19°C° 0 mm 3 mps 596 mmHg 71%
13:00 +19°C° 0 mm 3 mps 596 mmHg 70%
14:00 +19°C° 0 mm 3 mps 595 mmHg 69%
15:00 +18°C° 0 mm 3 mps 595 mmHg 71%
16:00 +18°C° 0 mm 3 mps 594 mmHg 73%
17:00 +17°C° 0 mm 3 mps 594 mmHg 75%
18:00 +16°C° 0.1 mm 3 mps 594 mmHg 78%
19:00 +16°C° 0.1 mm 3 mps 595 mmHg 81%
20:00 +15°C° 0.1 mm 2 mps 595 mmHg 84%
21:00 +14°C° 0 mm 2 mps 595 mmHg 84%
22:00 +14°C° 0 mm 2 mps 596 mmHg 83%
23:00 +13°C° 0 mm 2 mps 596 mmHg 82%

Day after tomorrow, 28 September, Monday

Time Temperature Precipitation Wind Pressure Humidity
00:00 +13°C° 0 mm 2 mps 596 mmHg 80%
01:00 +13°C° 0 mm 2 mps 596 mmHg 79%
02:00 +13°C° 0 mm 2 mps 595 mmHg 77%
03:00 +12°C° 0 mm 1 mps 595 mmHg 73%
04:00 +12°C° 0 mm 1 mps 595 mmHg 70%
05:00 +12°C° 0 mm 1 mps 595 mmHg 67%
06:00 +13°C° 0 mm 1 mps 596 mmHg 65%
07:00 +13°C° 0 mm 1 mps 597 mmHg 63%
08:00 +14°C° 0 mm 1 mps 597 mmHg 61%
09:00 +15°C° 0 mm 1 mps 597 mmHg 58%
10:00 +17°C° 0 mm 2 mps 598 mmHg 54%
11:00 +18°C° 0 mm 2 mps 598 mmHg 51%
12:00 +20°C° 0 mm 2 mps 597 mmHg 48%
13:00 +21°C° 0 mm 3 mps 597 mmHg 45%
14:00 +22°C° 0 mm 3 mps 596 mmHg 42%
15:00 +21°C° 0.4 mm 3 mps 595 mmHg 44%
16:00 +20°C° 0.4 mm 3 mps 594 mmHg 47%
17:00 +19°C° 0.4 mm 4 mps 594 mmHg 49%
18:00 +18°C° 0.4 mm 3 mps 594 mmHg 53%
19:00 +17°C° 0.4 mm 2 mps 594 mmHg 56%
20:00 +18°C° 0.4 mm 1 mps 595 mmHg 59%
21:00 +16°C° 0 mm 2 mps 595 mmHg 59%
22:00 +16°C° 0 mm 2 mps 595 mmHg 59%
23:00 +16°C° 0 mm 2 mps 595 mmHg 59%

29 September, Tuesday

Time Temperature Precipitation Wind Pressure Humidity
00:00 +16°C° 0 mm 2 mps 594 mmHg 60%
01:00 +16°C° 0 mm 2 mps 594 mmHg 60%
02:00 +16°C° 0 mm 2 mps 594 mmHg 61%
03:00 +16°C° 0 mm 2 mps 593 mmHg 61%
04:00 +16°C° 0 mm 2 mps 593 mmHg 61%
05:00 +16°C° 0 mm 2 mps 593 mmHg 61%
06:00 +18°C° 0 mm 2 mps 594 mmHg 52%
07:00 +20°C° 0 mm 3 mps 595 mmHg 44%
08:00 +22°C° 0 mm 3 mps 596 mmHg 36%
09:00 +25°C° 0 mm 3 mps 597 mmHg 29%
10:00 +27°C° 0 mm 3 mps 597 mmHg 22%
11:00 +29°C° 0 mm 3 mps 598 mmHg 15%
12:00 +30°C° 0 mm 3 mps 597 mmHg 15%
13:00 +30°C° 0 mm 4 mps 596 mmHg 16%
14:00 +32°C° 0 mm 4 mps 596 mmHg 16%
15:00 +30°C° 0 mm 4 mps 595 mmHg 19%
16:00 +30°C° 0 mm 4 mps 595 mmHg 21%
17:00 +29°C° 0 mm 4 mps 594 mmHg 24%
18:00 +27°C° 0 mm 3 mps 594 mmHg 30%
19:00 +25°C° 0 mm 2 mps 594 mmHg 37%
20:00 +23°C° 0 mm 1 mps 593 mmHg 43%
21:00 +23°C° 0 mm 1 mps 594 mmHg 45%
22:00 +22°C° 0 mm 1 mps 594 mmHg 46%
23:00 +22°C° 0 mm 1 mps 594 mmHg 47%

30 September, Wednesday

Time Temperature Precipitation Wind Pressure Humidity
00:00 +22°C° 0 mm 1 mps 594 mmHg 48%
01:00 +21°C° 0 mm 1 mps 593 mmHg 49%
02:00 +21°C° 0 mm 1 mps 593 mmHg 50%
03:00 +20°C° 0 mm 1 mps 593 mmHg 48%
04:00 +20°C° 0 mm 1 mps 593 mmHg 47%
05:00 +19°C° 0 mm 1 mps 593 mmHg 46%
06:00 +21°C° 0 mm 1 mps 595 mmHg 39%
07:00 +23°C° 0 mm 1 mps 596 mmHg 31%
08:00 +25°C° 0 mm 1 mps 597 mmHg 24%
09:00 +27°C° 0 mm 1 mps 598 mmHg 20%
10:00 +29°C° 0 mm 2 mps 598 mmHg 17%
11:00 +30°C° 0 mm 2 mps 599 mmHg 13%
12:00 +31°C° 0 mm 3 mps 598 mmHg 13%
13:00 +33°C° 0 mm 4 mps 598 mmHg 13%
14:00 +33°C° 0 mm 5 mps 597 mmHg 13%
15:00 +32°C° 0 mm 5 mps 596 mmHg 19%
16:00 +29°C° 0 mm 5 mps 596 mmHg 26%
17:00 +28°C° 0 mm 6 mps 595 mmHg 32%
18:00 +26°C° 0.1 mm 5 mps 595 mmHg 38%
19:00 +24°C° 0.1 mm 3 mps 596 mmHg 45%
20:00 +21°C° 0.1 mm 2 mps 596 mmHg 51%
21:00 +21°C° 0 mm 2 mps 596 mmHg 52%
22:00 +22°C° 0 mm 1 mps 596 mmHg 54%
23:00 +21°C° 0 mm 1 mps 597 mmHg 56%

1 October, Thursday

Time Temperature Precipitation Wind Pressure Humidity
00:00 +21°C° 0 mm 1 mps 596 mmHg 58%
01:00 +20°C° 0 mm 1 mps 596 mmHg 61%
02:00 +18°C° 0 mm 0 mps 595 mmHg 64%
03:00 +20°C° 0 mm 1 mps 596 mmHg 64%
04:00 +20°C° 0 mm 1 mps 596 mmHg 64%
05:00 +20°C° 0 mm 1 mps 596 mmHg 63%
06:00 +20°C° 0 mm 2 mps 597 mmHg 61%
07:00 +20°C° 0 mm 2 mps 597 mmHg 58%
08:00 +21°C° 0 mm 2 mps 598 mmHg 56%
09:00 +24°C° 0 mm 3 mps 598 mmHg 50%
10:00 +25°C° 0 mm 3 mps 599 mmHg 44%
11:00 +27°C° 0 mm 3 mps 599 mmHg 37%
12:00 +28°C° 0 mm 4 mps 599 mmHg 36%
13:00 +29°C° 0 mm 5 mps 598 mmHg 35%
14:00 +30°C° 0 mm 5 mps 598 mmHg 33%
15:00 +27°C° 1.9 mm 5 mps 597 mmHg 48%
16:00 +23°C° 1.9 mm 5 mps 595 mmHg 63%
17:00 +20°C° 1.9 mm 4 mps 594 mmHg 78%
18:00 +19°C° 1.4 mm 4 mps 595 mmHg 81%
19:00 +18°C° 1.4 mm 3 mps 596 mmHg 84%
20:00 +17°C° 1.4 mm 2 mps 596 mmHg 88%
21:00 +17°C° 1.3 mm 2 mps 597 mmHg 89%
22:00 +17°C° 1.3 mm 2 mps 597 mmHg 91%
23:00 +16°C° 1.3 mm 2 mps 598 mmHg 92%
Show more